AAY2881 KSFB-KEYW

Flight info

Callsign AAY2881
Flight time 1h 12m
Altitude 36000
Route DDANY EBAYY FNTSY1
Aircraft A319/M-SDE3FGHIRWY/LB1

Departure

Time 2026-04-21 12:08
Airport Orlando Sanford International Airport (KSFB)

Arrival

Time 2026-04-21 13:20
Airport Key West International Airport (KEYW)
Time Latitude Longitude Altitude Speed Heading
2026-04-21 11:35 28.77703 -81.24310 64 ft 0 kts 231°
2026-04-21 11:56 28.77705 -81.24308 55 ft 3 kts 231°
2026-04-21 11:56 28.77722 -81.24284 60 ft 4 kts 227°
2026-04-21 11:56 28.77741 -81.24263 55 ft 4 kts 213°
2026-04-21 11:57 28.77760 -81.24254 59 ft 4 kts 146°
2026-04-21 11:57 28.77763 -81.24256 55 ft 1 kts 90°
2026-04-21 11:57 28.77763 -81.24259 55 ft 0 kts 90°
2026-04-21 12:00 28.77763 -81.24257 64 ft 1 kts 90°
2026-04-21 12:00 28.77763 -81.24246 58 ft 2 kts 90°
2026-04-21 12:00 28.77763 -81.24221 64 ft 4 kts 91°
2026-04-21 12:00 28.77763 -81.24180 64 ft 6 kts 89°
2026-04-21 12:01 28.77763 -81.24121 73 ft 9 kts 90°
2026-04-21 12:01 28.77763 -81.24048 64 ft 10 kts 90°
2026-04-21 12:01 28.77764 -81.23966 64 ft 11 kts 89°
2026-04-21 12:01 28.77763 -81.23875 64 ft 12 kts 90°
2026-04-21 12:02 28.77764 -81.23776 64 ft 13 kts 90°
2026-04-21 12:02 28.77709 -81.23635 60 ft 11 kts 179°
2026-04-21 12:02 28.77628 -81.23631 58 ft 12 kts 175°
2026-04-21 12:03 28.77540 -81.23626 61 ft 13 kts 180°
2026-04-21 12:03 28.77446 -81.23626 61 ft 14 kts 179°
2026-04-21 12:03 28.77346 -81.23625 62 ft 15 kts 180°
2026-04-21 12:03 28.77241 -81.23628 62 ft 16 kts 183°
2026-04-21 12:04 28.77129 -81.23629 60 ft 16 kts 180°
2026-04-21 12:04 28.77013 -81.23629 64 ft 17 kts 180°
2026-04-21 12:04 28.76891 -81.23629 64 ft 18 kts 180°
2026-04-21 12:04 28.76767 -81.23629 57 ft 16 kts 180°
2026-04-21 12:05 28.76705 -81.23620 64 ft 6 kts 148°
2026-04-21 12:05 28.76692 -81.23592 58 ft 4 kts 103°
2026-04-21 12:05 28.76692 -81.23563 64 ft 3 kts 89°
2026-04-21 12:05 28.76692 -81.23537 64 ft 4 kts 89°
2026-04-21 12:06 28.76693 -81.23507 65 ft 4 kts 89°
2026-04-21 12:06 28.76700 -81.23474 61 ft 4 kts 39°
2026-04-21 12:06 28.76713 -81.23475 61 ft 2 kts 358°
2026-04-21 12:06 28.76714 -81.23475 61 ft 0 kts 358°
2026-04-21 12:07 28.76715 -81.23475 61 ft 0 kts 358°
2026-04-21 12:07 28.76785 -81.23476 57 ft 40 kts 360°
2026-04-21 12:07 28.77344 -81.23477 58 ft 117 kts 360°
2026-04-21 12:08 28.78314 -81.23478 366 ft 145 kts
2026-04-21 12:08 28.79321 -81.23480 1091 ft 144 kts
2026-04-21 12:08 28.80322 -81.23481 1804 ft 144 kts
2026-04-21 12:08 28.81386 -81.23476 2263 ft 164 kts
2026-04-21 12:09 28.82597 -81.23456 2706 ft 184 kts
2026-04-21 12:09 28.83949 -81.23299 3101 ft 206 kts 23°
2026-04-21 12:09 28.85130 -81.22309 3639 ft 223 kts 54°
2026-04-21 12:09 28.85706 -81.20598 4311 ft 241 kts 79°
2026-04-21 12:10 28.85905 -81.18682 5370 ft 245 kts 81°
2026-04-21 12:10 28.86063 -81.16726 6320 ft 252 kts 82°
2026-04-21 12:10 28.86235 -81.14696 7169 ft 262 kts 82°
2026-04-21 12:10 28.86424 -81.12593 8001 ft 271 kts 82°
2026-04-21 12:11 28.86618 -81.10427 8865 ft 278 kts 82°
2026-04-21 12:11 28.86625 -81.08182 9675 ft 291 kts 98°
2026-04-21 12:11 28.85837 -81.06009 10362 ft 309 kts 123°
2026-04-21 12:11 28.84165 -81.04329 10671 ft 335 kts 150°
2026-04-21 12:12 28.82044 -81.03041 11116 ft 353 kts 153°
2026-04-21 12:12 28.79829 -81.01757 11829 ft 360 kts 153°
2026-04-21 12:12 28.77600 -81.00479 12576 ft 366 kts 153°
2026-04-21 12:12 28.75310 -80.99158 13342 ft 372 kts 153°
2026-04-21 12:13 28.72990 -80.97804 14085 ft 377 kts 153°
2026-04-21 12:13 28.70641 -80.96422 14746 ft 382 kts 153°
2026-04-21 12:13 28.68268 -80.95019 15432 ft 387 kts 153°
2026-04-21 12:13 28.65868 -80.93599 16120 ft 391 kts 153°
2026-04-21 12:14 28.63447 -80.92165 16820 ft 394 kts 153°
2026-04-21 12:14 28.61007 -80.90721 17528 ft 397 kts 154°
2026-04-21 12:14 28.58540 -80.89262 18180 ft 402 kts 154°
2026-04-21 12:14 28.56044 -80.87788 18803 ft 407 kts 154°
2026-04-21 12:15 28.53518 -80.86298 19375 ft 411 kts 154°
2026-04-21 12:15 28.50965 -80.84794 19960 ft 415 kts 155°
2026-04-21 12:15 28.48392 -80.83276 20540 ft 419 kts 155°
2026-04-21 12:15 28.45794 -80.81744 21118 ft 423 kts 155°
2026-04-21 12:16 28.43170 -80.80202 21686 ft 427 kts 155°
2026-04-21 12:16 28.40517 -80.78642 22251 ft 431 kts 155°
2026-04-21 12:16 28.37841 -80.77072 22803 ft 435 kts 156°
2026-04-21 12:16 28.36056 -80.76023 23160 ft 438 kts 156°
2026-04-21 12:17 28.33338 -80.74425 23673 ft 441 kts 156°
2026-04-21 12:17 28.30602 -80.72816 24155 ft 444 kts 156°
2026-04-21 12:17 28.27844 -80.71195 24579 ft 448 kts 156°
2026-04-21 12:17 28.25066 -80.69562 24975 ft 452 kts 156°
2026-04-21 12:18 28.22261 -80.67925 25372 ft 455 kts 158°
2026-04-21 12:18 28.19331 -80.66599 25750 ft 453 kts 167°
2026-04-21 12:18 28.16309 -80.65529 26140 ft 457 kts 167°
2026-04-21 12:18 28.13266 -80.64454 26520 ft 460 kts 167°
2026-04-21 12:19 28.10197 -80.63372 26921 ft 464 kts 167°
2026-04-21 12:19 28.07107 -80.62279 27287 ft 467 kts 167°
2026-04-21 12:19 28.03993 -80.61169 27647 ft 471 kts 167°
2026-04-21 12:19 28.00865 -80.60050 28082 ft 472 kts 167°
2026-04-21 12:20 27.97722 -80.58929 28487 ft 475 kts 167°
2026-04-21 12:20 27.94564 -80.57806 28865 ft 478 kts 167°
2026-04-21 12:20 27.91376 -80.56677 29229 ft 481 kts 167°
2026-04-21 12:20 27.88174 -80.55544 29579 ft 484 kts 167°
2026-04-21 12:21 27.84946 -80.54404 29924 ft 487 kts 167°
2026-04-21 12:21 27.81701 -80.53262 30269 ft 491 kts 168°
2026-04-21 12:21 27.78474 -80.52122 30524 ft 494 kts 168°
2026-04-21 12:21 27.75163 -80.51058 30801 ft 493 kts 173°
2026-04-21 12:22 27.71789 -80.50482 31094 ft 488 kts 181°
2026-04-21 12:22 27.68421 -80.50440 31413 ft 482 kts 190°
2026-04-21 12:22 27.65075 -80.50711 31738 ft 482 kts 191°
2026-04-21 12:22 27.61738 -80.50982 32176 ft 480 kts 191°
2026-04-21 12:23 27.58410 -80.51245 32626 ft 478 kts 191°
2026-04-21 12:23 27.55096 -80.51503 33066 ft 477 kts 191°
2026-04-21 12:23 27.51793 -80.51760 33501 ft 475 kts 191°
2026-04-21 12:23 27.48502 -80.52019 33946 ft 473 kts 191°
2026-04-21 12:24 27.45222 -80.52279 34376 ft 472 kts 191°
2026-04-21 12:24 27.41956 -80.52540 34751 ft 470 kts 191°
2026-04-21 12:24 27.38693 -80.52801 35103 ft 469 kts 192°
2026-04-21 12:24 27.35443 -80.53060 35238 ft 468 kts 192°
2026-04-21 12:25 27.32197 -80.53315 35265 ft 467 kts 192°
2026-04-21 12:25 27.25719 -80.53822 35258 ft 467 kts 192°
2026-04-21 12:26 27.19231 -80.54329 35262 ft 467 kts 192°
2026-04-21 12:26 27.12752 -80.54837 35259 ft 466 kts 192°
2026-04-21 12:27 27.06298 -80.55344 35262 ft 464 kts 192°
2026-04-21 12:27 26.99893 -80.55848 35258 ft 464 kts 192°
2026-04-21 12:28 26.93447 -80.56351 35260 ft 464 kts 192°
2026-04-21 12:28 26.87002 -80.56853 35257 ft 464 kts 192°
2026-04-21 12:29 26.80556 -80.57358 35256 ft 464 kts 192°
2026-04-21 12:29 26.74115 -80.57867 35255 ft 464 kts 192°
2026-04-21 12:30 26.67674 -80.58367 35247 ft 464 kts 192°
2026-04-21 12:30 26.61232 -80.58868 35250 ft 464 kts 192°
2026-04-21 12:31 26.54785 -80.59371 35223 ft 464 kts 192°
2026-04-21 12:31 26.48347 -80.59868 35246 ft 464 kts 192°
2026-04-21 12:32 26.41912 -80.60363 35233 ft 463 kts 192°
2026-04-21 12:32 26.35516 -80.60863 35235 ft 463 kts 192°
2026-04-21 12:33 26.29078 -80.61360 35235 ft 463 kts 192°
2026-04-21 12:33 26.22645 -80.61857 35232 ft 463 kts 193°
2026-04-21 12:34 26.16228 -80.62348 35230 ft 462 kts 193°
2026-04-21 12:34 26.09812 -80.62827 35232 ft 462 kts 192°
2026-04-21 12:35 26.03395 -80.63297 35226 ft 462 kts 192°
2026-04-21 12:35 25.96978 -80.63770 35226 ft 462 kts 192°
2026-04-21 12:36 25.90560 -80.64253 35028 ft 462 kts 193°
2026-04-21 12:36 25.87360 -80.64496 34794 ft 461 kts 193°
2026-04-21 12:36 25.84156 -80.64738 34560 ft 462 kts 193°
2026-04-21 12:36 25.80945 -80.64976 34330 ft 462 kts 193°
2026-04-21 12:37 25.77734 -80.65213 34085 ft 463 kts 193°
2026-04-21 12:37 25.74516 -80.65449 33823 ft 464 kts 192°
2026-04-21 12:37 25.71335 -80.65683 33081 ft 466 kts 192°
2026-04-21 12:37 25.68062 -80.65931 31831 ft 476 kts 191°
2026-04-21 12:38 25.64736 -80.66184 30688 ft 483 kts 189°
2026-04-21 12:38 25.61390 -80.66430 30007 ft 478 kts 189°
2026-04-21 12:38 25.58094 -80.66663 29268 ft 472 kts 189°
2026-04-21 12:38 25.54838 -80.66896 28563 ft 466 kts 189°
2026-04-21 12:39 25.51623 -80.67131 27870 ft 460 kts 189°
2026-04-21 12:39 25.48447 -80.67364 27198 ft 455 kts 189°
2026-04-21 12:39 25.45307 -80.67595 26527 ft 450 kts 189°
2026-04-21 12:39 25.42190 -80.67827 25863 ft 446 kts 189°
2026-04-21 12:40 25.39116 -80.68107 25225 ft 439 kts 193°
2026-04-21 12:40 25.36160 -80.68800 24605 ft 431 kts 199°
2026-04-21 12:40 25.33271 -80.69619 23994 ft 427 kts 199°
2026-04-21 12:40 25.30408 -80.70426 23372 ft 423 kts 199°
2026-04-21 12:41 25.27575 -80.71219 22807 ft 417 kts 199°
2026-04-21 12:41 25.24780 -80.72001 22296 ft 412 kts 199°
2026-04-21 12:41 25.22048 -80.72765 21790 ft 408 kts 199°
2026-04-21 12:41 25.19313 -80.73530 21307 ft 404 kts 199°
2026-04-21 12:42 25.16600 -80.74290 20824 ft 400 kts 199°
2026-04-21 12:42 25.13911 -80.75043 20334 ft 397 kts 199°
2026-04-21 12:42 25.11243 -80.75789 19846 ft 394 kts 199°
2026-04-21 12:42 25.08592 -80.76528 19339 ft 392 kts 199°
2026-04-21 12:43 25.05959 -80.77264 18852 ft 389 kts 199°
2026-04-21 12:43 25.03329 -80.78011 18104 ft 391 kts 201°
2026-04-21 12:43 25.00829 -80.79095 17584 ft 382 kts 211°
2026-04-21 12:43 24.98605 -80.80622 17072 ft 372 kts 221°
2026-04-21 12:44 24.96670 -80.82475 16558 ft 366 kts 226°
2026-04-21 12:44 24.94794 -80.84349 16062 ft 362 kts 226°
2026-04-21 12:44 24.92936 -80.86200 15574 ft 359 kts 225°
2026-04-21 12:44 24.91090 -80.88032 15083 ft 356 kts 225°
2026-04-21 12:45 24.89257 -80.89847 14604 ft 353 kts 225°
2026-04-21 12:45 24.87438 -80.91645 14114 ft 350 kts 225°
2026-04-21 12:45 24.85630 -80.93430 13591 ft 348 kts 225°
2026-04-21 12:45 24.83841 -80.95198 13091 ft 344 kts 224°
2026-04-21 12:46 24.82067 -80.96955 12604 ft 341 kts 224°
2026-04-21 12:46 24.80313 -80.98694 12103 ft 338 kts 224°
2026-04-21 12:46 24.78571 -81.00422 11607 ft 336 kts 223°
2026-04-21 12:46 24.76943 -81.02252 11095 ft 334 kts 232°
2026-04-21 12:47 24.75648 -81.04361 10610 ft 332 kts 239°
2026-04-21 12:47 24.74473 -81.06486 10467 ft 319 kts 239°
2026-04-21 12:47 24.73334 -81.08523 10343 ft 306 kts 238°
2026-04-21 12:47 24.72226 -81.10497 10104 ft 300 kts 238°
2026-04-21 12:48 24.71146 -81.12422 9904 ft 299 kts 238°
2026-04-21 12:48 24.70057 -81.14364 9775 ft 299 kts 238°
2026-04-21 12:48 24.68966 -81.16307 9550 ft 298 kts 238°
2026-04-21 12:48 24.67881 -81.18243 9162 ft 297 kts 238°
2026-04-21 12:49 24.66798 -81.20179 8757 ft 297 kts 238°
2026-04-21 12:49 24.65718 -81.22105 8345 ft 296 kts 238°
2026-04-21 12:49 24.64597 -81.23993 7944 ft 295 kts 231°
2026-04-21 12:49 24.63259 -81.25683 7824 ft 296 kts 228°
2026-04-21 12:50 24.61904 -81.27392 7690 ft 296 kts 229°
2026-04-21 12:50 24.60566 -81.29098 7553 ft 294 kts 229°
2026-04-21 12:50 24.59237 -81.30799 7408 ft 293 kts 229°
2026-04-21 12:50 24.57906 -81.32501 7266 ft 293 kts 229°
2026-04-21 12:51 24.56579 -81.34199 7122 ft 291 kts 230°
2026-04-21 12:51 24.55455 -81.36038 6970 ft 291 kts 243°
2026-04-21 12:51 24.54535 -81.38021 6829 ft 292 kts 244°
2026-04-21 12:51 24.53605 -81.40004 6684 ft 292 kts 243°
2026-04-21 12:52 24.52669 -81.41982 6547 ft 290 kts 243°
2026-04-21 12:52 24.51736 -81.43940 6391 ft 291 kts 243°
2026-04-21 12:52 24.50797 -81.45911 6239 ft 293 kts 243°
2026-04-21 12:52 24.49853 -81.47896 6101 ft 293 kts 243°
2026-04-21 12:53 24.48914 -81.49873 5953 ft 291 kts 243°
2026-04-21 12:53 24.47976 -81.51847 5809 ft 292 kts 243°
2026-04-21 12:53 24.47059 -81.53843 5666 ft 294 kts 249°
2026-04-21 12:53 24.46521 -81.56003 5524 ft 292 kts 264°
2026-04-21 12:54 24.46445 -81.58225 5397 ft 292 kts 272°
2026-04-21 12:54 24.46432 -81.60435 5255 ft 288 kts 271°
2026-04-21 12:54 24.46414 -81.62636 5115 ft 289 kts 271°
2026-04-21 12:54 24.46395 -81.64840 4978 ft 285 kts 271°
2026-04-21 12:55 24.46372 -81.66957 4856 ft 270 kts 272°
2026-04-21 12:55 24.46349 -81.68971 4741 ft 257 kts 271°
2026-04-21 12:55 24.46326 -81.70892 4629 ft 247 kts 272°
2026-04-21 12:55 24.46305 -81.72744 4524 ft 239 kts 271°
2026-04-21 12:56 24.46286 -81.74548 4399 ft 235 kts 272°
2026-04-21 12:56 24.46272 -81.76333 4289 ft 238 kts 272°
2026-04-21 12:56 24.46256 -81.78135 4168 ft 234 kts 271°
2026-04-21 12:56 24.46238 -81.79912 4054 ft 236 kts 271°
2026-04-21 12:57 24.46219 -81.81743 3938 ft 243 kts 272°
2026-04-21 12:57 24.46199 -81.83620 3814 ft 248 kts 272°
2026-04-21 12:57 24.46180 -81.85514 3695 ft 248 kts 271°
2026-04-21 12:57 24.46159 -81.87401 3567 ft 247 kts 272°
2026-04-21 12:58 24.46140 -81.89303 3451 ft 252 kts 272°
2026-04-21 12:58 24.46122 -81.91228 3323 ft 252 kts 272°
2026-04-21 12:58 24.46101 -81.93145 3198 ft 251 kts 272°
2026-04-21 12:58 24.46416 -81.94972 3078 ft 239 kts 303°
2026-04-21 12:59 24.47495 -81.96249 2992 ft 224 kts 338°
2026-04-21 12:59 24.48915 -81.96701 2840 ft 208 kts
2026-04-21 12:59 24.50366 -81.96712 2708 ft 209 kts
2026-04-21 12:59 24.51826 -81.96730 2579 ft 209 kts
2026-04-21 13:00 24.53251 -81.96752 2454 ft 200 kts
2026-04-21 13:00 24.54519 -81.96370 2341 ft 185 kts 39°
2026-04-21 13:00 24.55296 -81.95300 2244 ft 180 kts 70°
2026-04-21 13:00 24.55430 -81.93956 2151 ft 175 kts 85°
2026-04-21 13:01 24.55437 -81.92659 2090 ft 163 kts 85°
2026-04-21 13:01 24.55450 -81.91430 1977 ft 158 kts 85°
2026-04-21 13:01 24.55464 -81.90215 1884 ft 159 kts 86°
2026-04-21 13:01 24.55476 -81.89031 1797 ft 150 kts 85°
2026-04-21 13:02 24.55485 -81.87944 1721 ft 135 kts 85°
2026-04-21 13:02 24.55493 -81.86966 1655 ft 125 kts 84°
2026-04-21 13:02 24.55514 -81.85091 1524 ft 123 kts 86°
2026-04-21 13:03 24.55525 -81.84156 1376 ft 122 kts 85°
2026-04-21 13:03 24.55534 -81.83232 1209 ft 121 kts 84°
2026-04-21 13:03 24.55543 -81.82309 1053 ft 121 kts 83°
2026-04-21 13:03 24.55552 -81.81390 894 ft 120 kts 83°
2026-04-21 13:04 24.55561 -81.80464 698 ft 121 kts 83°
2026-04-21 13:04 24.55567 -81.79543 550 ft 121 kts 85°
2026-04-21 13:04 24.55575 -81.78619 400 ft 119 kts 84°
2026-04-21 13:04 24.55589 -81.78020 291 ft 119 kts 84°
2026-04-21 13:05 24.55604 -81.76797 47 ft 120 kts 83°
2026-04-21 13:05 24.55616 -81.75959 16 ft 96 kts 88°
2026-04-21 13:05 24.55615 -81.75163 297 ft 112 kts 85°
2026-04-21 13:05 24.55581 -81.74250 965 ft 126 kts 90°
2026-04-21 13:06 24.55537 -81.73270 1743 ft 130 kts 89°
2026-04-21 13:06 24.55521 -81.72600 2171 ft 139 kts 86°
2026-04-21 13:06 24.55553 -81.71391 2229 ft 172 kts 85°
2026-04-21 13:06 24.55596 -81.70044 2220 ft 179 kts 85°
2026-04-21 13:07 24.55633 -81.68678 2221 ft 178 kts 85°
2026-04-21 13:07 24.55662 -81.67312 2238 ft 180 kts 86°
2026-04-21 13:07 24.55686 -81.65933 2237 ft 181 kts 87°
2026-04-21 13:07 24.55706 -81.64555 2232 ft 181 kts 86°
2026-04-21 13:08 24.55724 -81.63168 2239 ft 183 kts 87°
2026-04-21 13:08 24.55379 -81.61822 2234 ft 192 kts 119°
2026-04-21 13:08 24.54269 -81.60959 2238 ft 207 kts 156°
2026-04-21 13:08 24.52802 -81.60997 2234 ft 221 kts 194°
2026-04-21 13:09 24.51536 -81.61995 2224 ft 236 kts 232°
2026-04-21 13:09 24.50884 -81.63684 2245 ft 245 kts 259°
2026-04-21 13:09 24.50508 -81.65507 2234 ft 244 kts 258°
2026-04-21 13:09 24.50135 -81.67330 2234 ft 246 kts 259°
2026-04-21 13:10 24.49761 -81.69170 2236 ft 247 kts 258°
2026-04-21 13:10 24.49392 -81.71008 2280 ft 246 kts 258°
2026-04-21 13:10 24.49023 -81.72852 2455 ft 248 kts 258°
2026-04-21 13:10 24.48660 -81.74711 2630 ft 250 kts 259°
2026-04-21 13:11 24.48296 -81.76588 2798 ft 251 kts 259°
2026-04-21 13:11 24.47927 -81.78449 2959 ft 250 kts 259°
2026-04-21 13:11 24.47556 -81.80311 3013 ft 249 kts 258°
2026-04-21 13:11 24.47161 -81.82139 3017 ft 250 kts 252°
2026-04-21 13:12 24.46584 -81.83937 3019 ft 250 kts 249°
2026-04-21 13:12 24.45965 -81.85719 3018 ft 250 kts 249°
2026-04-21 13:12 24.45484 -81.87549 3019 ft 250 kts 267°
2026-04-21 13:12 24.45549 -81.89439 3033 ft 248 kts 277°
2026-04-21 13:13 24.45682 -81.91322 3023 ft 247 kts 277°
2026-04-21 13:13 24.45826 -81.93215 3018 ft 249 kts 281°
2026-04-21 13:13 24.46388 -81.94951 3016 ft 238 kts 311°
2026-04-21 13:13 24.47537 -81.96167 2992 ft 225 kts 337°
2026-04-21 13:14 24.48966 -81.96693 2837 ft 212 kts
2026-04-21 13:14 24.50426 -81.96717 2713 ft 210 kts
2026-04-21 13:14 24.51884 -81.96730 2585 ft 209 kts
2026-04-21 13:14 24.53332 -81.96745 2460 ft 206 kts
2026-04-21 13:15 24.54633 -81.96288 2333 ft 194 kts 43°
2026-04-21 13:15 24.55352 -81.95100 2231 ft 187 kts 75°
2026-04-21 13:15 24.55432 -81.93714 2134 ft 178 kts 86°
2026-04-21 13:15 24.55442 -81.92389 2038 ft 170 kts 86°
2026-04-21 13:16 24.55455 -81.91083 1950 ft 171 kts 86°
2026-04-21 13:16 24.55469 -81.89777 1854 ft 169 kts 86°
2026-04-21 13:16 24.55481 -81.88562 1800 ft 155 kts 86°
2026-04-21 13:16 24.55493 -81.87405 1686 ft 144 kts 85°
2026-04-21 13:17 24.55503 -81.86368 1605 ft 131 kts 86°
2026-04-21 13:17 24.55513 -81.85398 1542 ft 125 kts 85°
2026-04-21 13:17 24.55523 -81.84458 1431 ft 123 kts 85°
2026-04-21 13:17 24.55532 -81.83528 1268 ft 121 kts 84°
2026-04-21 13:18 24.55544 -81.82608 1106 ft 120 kts 84°
2026-04-21 13:18 24.55556 -81.81695 939 ft 119 kts 84°
2026-04-21 13:18 24.55565 -81.80781 756 ft 121 kts 83°
2026-04-21 13:18 24.55574 -81.79857 610 ft 120 kts 84°
2026-04-21 13:19 24.55584 -81.78945 424 ft 119 kts 85°
2026-04-21 13:19 24.55591 -81.78035 237 ft 119 kts 84°
2026-04-21 13:19 24.55601 -81.77130 96 ft 118 kts 83°
2026-04-21 13:19 24.55608 -81.76257 15 ft 102 kts 82°
2026-04-21 13:20 24.55616 -81.75610 15 ft 64 kts 89°
2026-04-21 13:20 24.55619 -81.75290 13 ft 15 kts 88°
2026-04-21 13:20 24.55580 -81.75239 13 ft 10 kts 172°
2026-04-21 13:20 24.55532 -81.75280 13 ft 10 kts 262°
2026-04-21 13:21 24.55519 -81.75315 14 ft 4 kts 211°
2026-04-21 13:21 24.55488 -81.75319 12 ft 5 kts 193°
2026-04-21 13:21 24.55481 -81.75321 12 ft 1 kts 199°
2026-04-21 13:21 24.55464 -81.75331 12 ft 4 kts 208°
2026-04-21 13:22 24.55448 -81.75341 12 ft 3 kts 211°
2026-04-21 13:22 24.55443 -81.75345 12 ft 0 kts 211°